Weather History for Colby, KS

Change the Weather History Date:

Saturday, March 9, 2013

  Actual Average (KGLD) Record (KGLD)
Temperature  
Mean Temperature 42 °F 39 °F  
Max Temperature 53 °F 53 °F 83 °F (1989)
Min Temperature 32 °F 25 °F -4 °F (1932)
Degree Days  
Heating Degree Days 22 26  
Month to date heating degree days 248  
Since 1 July heating degree days 4665  
Cooling Degree Days 0 0  
Month to date cooling degree days 0  
Year to date cooling degree days 0  
Moisture  
Dew Point 40 °F    
Average Humidity 99    
Maximum Humidity 100    
Minimum Humidity 93    
Precipitation  
Precipitation 0.00 in 0.03 in 0.43 in (1938)
Month to date precipitation 0.25  
Year to date precipitation 1.12  
Snow  
Snow 0.00 in 0.20 in - ()
Month to date snowfall 1.7  
Since 1 July snowfall 25.7  
Snow Depth -    
Sea Level Pressure  
Sea Level Pressure 29.64 in    
Wind  
Wind Speed 17 mph (NW)    
Max Wind Speed 30 mph    
Max Gust Speed 37 mph    
Visibility 5 miles    
Events Fog , Rain , Snow    
T = Trace of Precipitation, MM = Missing Value Source: NWS Daily Summary

Daily Weather History Graph

Daily Weather History Graph

Search for Another Location

Airport:

Trip Planner

Search our weather history database for the weather conditions in past years. The results will help you decide how hot, cold, wet, or windy it might be!

Date:

Astronomy

Mar. 09, 2013 Rise Set
Actual Time 7:04 AM CST 6:45 PM CST
Civil Twilight 6:37 AM CST 7:12 PM CST
Nautical Twilight 6:06 AM CST 7:43 PM CST
Astronomical Twilight 5:35 AM CST 8:14 PM CST
Moon 5:29 AM CST (3/9) 4:49 PM CST (3/9)
Length of Visible Light 12h 34m
Length of Day
11h 40m
Waning Crescent, 5% of the Moon is Illuminated
Mar 9
Waning Crescent
Mar 11
New
Mar 19
First Quarter
Mar 27
Full
Apr 2
Last Quarter

Hourly Weather History & Observations

Time (CST) Temp. Windchill Dew Point Humidity Pressure Visibility Wind Dir Wind Speed Gust Speed Precip Events Conditions
12:15 AM 53.6 °F - 51.8 °F 94% 29.63 in 7.0 mi SSE 16.1 mph 21.9 mph N/A   Scattered Clouds
12:35 AM 53.6 °F - 51.8 °F 94% 29.63 in 7.0 mi SSE 15.0 mph - N/A   Mostly Cloudy
12:55 AM 53.6 °F - 51.8 °F 94% 29.63 in 7.0 mi South 19.6 mph - N/A   Scattered Clouds
1:15 AM 53.6 °F - 51.8 °F 94% 29.63 in 7.0 mi SSE 17.3 mph 21.9 mph N/A   Clear
1:35 AM 51.8 °F - 51.8 °F 100% 29.63 in 7.0 mi SSE 16.1 mph - N/A   Clear
1:55 AM 51.8 °F - 51.8 °F 100% 29.61 in 5.0 mi SSE 12.7 mph - N/A   Clear
2:15 AM 51.8 °F - 50.0 °F 94% 29.61 in 10.0 mi SSE 18.4 mph 25.3 mph N/A   Clear
2:35 AM 51.8 °F - 50.0 °F 94% 29.60 in 10.0 mi South 17.3 mph 25.3 mph N/A   Clear
2:55 AM 51.8 °F - 51.8 °F 100% 29.60 in 10.0 mi SSE 24.2 mph 29.9 mph N/A   Scattered Clouds
3:15 AM 51.8 °F - 51.8 °F 100% 29.58 in 10.0 mi SSE 18.4 mph 27.6 mph N/A   Overcast
3:35 AM 51.8 °F - 51.8 °F 100% 29.57 in 10.0 mi South 20.7 mph 29.9 mph N/A   Overcast
3:55 AM 51.8 °F - 51.8 °F 100% 29.57 in 7.0 mi South 19.6 mph 26.5 mph N/A   Overcast
4:15 AM 51.8 °F - 51.8 °F 100% 29.58 in 7.0 mi South 19.6 mph 25.3 mph N/A   Mostly Cloudy
4:35 AM 51.8 °F - 51.8 °F 100% 29.57 in 7.0 mi South 15.0 mph 20.7 mph N/A   Scattered Clouds
4:55 AM 50.0 °F - 50.0 °F 100% 29.55 in 10.0 mi South 11.5 mph - N/A   Scattered Clouds
5:15 AM 50.0 °F - 50.0 °F 100% 29.56 in 7.0 mi South 10.4 mph - N/A   Clear
5:35 AM 50.0 °F - 50.0 °F 100% 29.56 in 7.0 mi SSW 6.9 mph - N/A   Scattered Clouds
5:55 AM 46.4 °F 44.3 °F 46.4 °F 100% 29.56 in 2.5 mi SSW 4.6 mph - N/A   Scattered Clouds
6:15 AM 44.6 °F 41.4 °F 44.6 °F 100% 29.57 in 3.0 mi SSW 5.8 mph - N/A   Clear
6:35 AM 42.8 °F 38.6 °F 42.8 °F 100% 29.57 in 7.0 mi SSW 6.9 mph - N/A   Clear
6:55 AM 41.0 °F 35.8 °F 41.0 °F 100% 29.56 in 10.0 mi SW 8.1 mph - N/A   Clear
7:15 AM 37.4 °F 30.8 °F 37.4 °F 100% 29.56 in 7.0 mi WSW 9.2 mph - N/A   Clear
7:35 AM 33.8 °F 26.4 °F 33.8 °F 100% 29.56 in 7.0 mi West 9.2 mph - N/A   Clear
7:55 AM 35.6 °F 29.2 °F 35.6 °F 100% 29.58 in 0.2 mi West 8.1 mph - N/A Rain Light Rain
8:15 AM 37.4 °F 31.4 °F 37.4 °F 100% 29.58 in 0.2 mi West 8.1 mph - N/A Rain Rain
8:35 AM 41.0 °F 35.8 °F 41.0 °F 100% 29.57 in 0.5 mi West 8.1 mph - N/A Fog Fog
8:55 AM 42.8 °F 36.6 °F 42.8 °F 100% 29.58 in 4.0 mi West 11.5 mph - N/A   Overcast
9:15 AM 42.8 °F 36.6 °F 42.8 °F 100% 29.58 in 5.0 mi WNW 11.5 mph - N/A   Overcast
9:35 AM 44.6 °F 39.2 °F 44.6 °F 100% 29.57 in 3.0 mi WNW 10.4 mph - N/A   Overcast
9:55 AM 42.8 °F 36.2 °F 42.8 °F 100% 29.57 in 2.5 mi WNW 12.7 mph - N/A   Overcast
10:15 AM 44.6 °F 38.4 °F 44.6 °F 100% 29.57 in 5.0 mi NW 12.7 mph - N/A   Overcast
10:35 AM 42.8 °F 37.0 °F 42.8 °F 100% 29.57 in 7.0 mi NW 10.4 mph - N/A   Overcast
10:55 AM 42.8 °F 35.8 °F 42.8 °F 100% 29.57 in 7.0 mi NW 13.8 mph - N/A   Overcast
11:15 AM 42.8 °F 35.4 °F 41.0 °F 93% 29.57 in 10.0 mi NW 15.0 mph - N/A   Overcast
11:35 AM 42.8 °F 34.8 °F 41.0 °F 93% 29.57 in 10.0 mi NW 17.3 mph - N/A   Overcast
11:55 AM 41.0 °F 32.2 °F 41.0 °F 100% 29.57 in 10.0 mi NW 18.4 mph 23.0 mph N/A   Overcast
12:15 PM 41.0 °F 31.6 °F 41.0 °F 100% 29.57 in 5.0 mi NW 20.7 mph 26.5 mph N/A   Overcast
12:35 PM 39.2 °F 28.7 °F 39.2 °F 100% 29.57 in 5.0 mi NNW 23.0 mph 28.8 mph N/A   Overcast
12:55 PM 37.4 °F 26.9 °F 37.4 °F 100% 29.57 in 2.5 mi NNW 20.7 mph 25.3 mph N/A   Overcast
1:15 PM 37.4 °F 27.2 °F 37.4 °F 100% 29.58 in 3.0 mi NNW 19.6 mph 26.5 mph N/A   Overcast
1:35 PM 37.4 °F 26.6 °F 37.4 °F 100% 29.58 in 5.0 mi NNW 21.9 mph 27.6 mph N/A   Overcast
1:55 PM 35.6 °F 24.2 °F 35.6 °F 100% 29.59 in 3.0 mi NNW 21.9 mph 31.1 mph N/A   Overcast
2:15 PM 35.6 °F 23.4 °F 35.6 °F 100% 29.59 in 4.0 mi NNW 25.3 mph 31.1 mph N/A   Overcast
2:35 PM 33.8 °F 21.9 °F 33.8 °F 100% 29.60 in 3.0 mi NNW 21.9 mph 28.8 mph N/A   Overcast
2:55 PM 33.8 °F 21.3 °F 33.8 °F 100% 29.60 in 3.0 mi NNW 24.2 mph 29.9 mph N/A   Overcast
3:15 PM 32.0 °F 18.4 °F 32.0 °F 100% 29.61 in 4.0 mi NNW 26.5 mph 33.4 mph N/A   Overcast
3:35 PM 32.0 °F 20.5 °F 32.0 °F 100% 29.63 in 4.0 mi NNW 18.4 mph 29.9 mph N/A   Overcast
3:55 PM 32.0 °F 19.5 °F 32.0 °F 100% 29.63 in 4.0 mi NNW 21.9 mph 31.1 mph N/A   Overcast
4:15 PM 32.0 °F 19.8 °F 32.0 °F 100% 29.64 in 3.0 mi NNW 20.7 mph 29.9 mph N/A   Overcast
4:35 PM 32.0 °F 20.1 °F 32.0 °F 100% 29.65 in 3.0 mi NNW 19.6 mph 32.2 mph N/A   Overcast
4:55 PM 32.0 °F 19.5 °F 32.0 °F 100% 29.64 in 4.0 mi NNW 21.9 mph 32.2 mph N/A   Overcast
5:15 PM 32.0 °F 18.9 °F 32.0 °F 100% 29.66 in 3.0 mi NNW 24.2 mph 32.2 mph N/A   Overcast
5:35 PM 32.0 °F 19.2 °F 32.0 °F 100% 29.66 in 2.5 mi NNW 23.0 mph 32.2 mph N/A   Overcast
5:55 PM 32.0 °F 18.9 °F 32.0 °F 100% 29.67 in 2.5 mi North 24.2 mph 29.9 mph N/A   Overcast
6:15 PM 32.0 °F 18.6 °F 32.0 °F 100% 29.68 in 2.0 mi North 25.3 mph 33.4 mph N/A   Overcast
6:35 PM 32.0 °F 17.6 °F 32.0 °F 100% 29.68 in 2.5 mi North 29.9 mph 35.7 mph N/A   Overcast
6:55 PM 32.0 °F 17.9 °F 32.0 °F 100% 29.69 in 2.0 mi North 28.8 mph 36.8 mph N/A   Overcast
7:15 PM 32.0 °F 18.1 °F 32.0 °F 100% 29.71 in 2.0 mi North 27.6 mph 33.4 mph N/A   Overcast
7:35 PM 32.0 °F 19.5 °F 32.0 °F 100% 29.73 in 3.0 mi North 21.9 mph 28.8 mph N/A   Overcast
7:55 PM 32.0 °F 19.5 °F 32.0 °F 100% 29.74 in 3.0 mi North 21.9 mph 31.1 mph N/A   Overcast
8:15 PM 32.0 °F 20.1 °F 32.0 °F 100% 29.75 in 3.0 mi North 19.6 mph 28.8 mph N/A   Overcast
8:35 PM 32.0 °F 18.9 °F 32.0 °F 100% 29.75 in 3.0 mi North 24.2 mph 29.9 mph N/A   Overcast
8:55 PM 32.0 °F 19.8 °F 32.0 °F 100% 29.76 in 4.0 mi North 20.7 mph 31.1 mph N/A   Overcast
9:15 PM 32.0 °F 19.2 °F 32.0 °F 100% 29.78 in 3.0 mi North 23.0 mph 32.2 mph N/A   Overcast
9:35 PM 32.0 °F 19.8 °F 32.0 °F 100% 29.80 in 3.0 mi North 20.7 mph 29.9 mph N/A   Overcast
9:55 PM 32.0 °F 20.8 °F 32.0 °F 100% 29.82 in 3.0 mi North 17.3 mph - N/A   Overcast
10:15 PM 32.0 °F 20.8 °F 32.0 °F 100% 29.83 in 3.0 mi North 17.3 mph 20.7 mph N/A   Overcast
10:35 PM 32.0 °F 21.6 °F 32.0 °F 100% 29.84 in 1.2 mi North 15.0 mph 19.6 mph N/A Snow Light Snow
10:55 PM 32.0 °F 20.8 °F 32.0 °F 100% 29.85 in 0.8 mi North 17.3 mph 21.9 mph N/A Snow Snow
11:15 PM 32.0 °F 21.2 °F 32.0 °F 100% 29.85 in 1.0 mi North 16.1 mph - N/A Snow Light Snow
11:35 PM 32.0 °F 21.2 °F 32.0 °F 100% 29.85 in 0.8 mi NNW 16.1 mph - N/A Snow Snow
11:55 PM 32.0 °F 19.8 °F 32.0 °F 100% 29.85 in - NNW 20.7 mph 26.5 mph N/A   Overcast